Regional Weather Roundup
Issued by NWS

Home | Current Version | Previous Version | Text Only | Print | Product List | Glossary Off
Versions: 1 2 3 4 5 6 7 8 9 10 11 12 13 14 15 16 17 18 19 20 21 22 23 24 25 26 27 28 29 30 31 32 33 34 35 36 37 38 39 40 41 42 43 44 45 46 47 48 49 50

000
ASUS43 KBIS 050010
RWRND

NORTH DAKOTA REGIONAL WEATHER ROUNDUP
NATIONAL WEATHER SERVICE BISMARCK ND
700 PM CDT FRI SEP 04 2015

NOTE: "FAIR" INDICATES FEW OR NO CLOUDS BELOW 12,000 FEET WITH NO
SIGNIFICANT WEATHER AND/OR OBSTRUCTIONS TO VISIBILITY.


NDZ001>003-009>011-017-050100-
NORTHWEST NORTH DAKOTA

CITY           SKY/WX    TMP DP  RH WIND       PRES   REMARKS
WILLISTON      SUNNY     74  57  55 NE10      29.87R
6HR MIN TEMP:  66; 6HR MAX TEMP:  78;

MINOT          CLOUDY    67  58  72 N14       29.86R
MINOT AFB      CLOUDY    67  61  81 N13       29.86R
$$

NDZ018>021-031>035-040>046-050100-
SOUTHWEST NORTH DAKOTA

CITY           SKY/WX    TMP DP  RH WIND       PRES   REMARKS
BISMARCK       SUNNY     87  66  49 N5        29.78S
6HR MIN TEMP:  78; 6HR MAX TEMP:  89; 6HR PCP: TRACE;

DICKINSON      SUNNY     80  63  55 NE14      29.81S
GARRISON         N/A     72  61  68 N13       29.84R
6HR MIN TEMP:  72; 6HR MAX TEMP:  83; 6HR PCP:  0.01;

HETTINGER ARPT SUNNY     90  54  29 SE7       29.79S
$$

NDZ004>008-012>016-024-026-027-054-050100-
NORTHEAST NORTH DAKOTA

CITY           SKY/WX    TMP DP  RH WIND       PRES   REMARKS
GRAND FORKS    MOCLDY    74  68  81 N9        29.81S
GRND FRKS AFB  FAIR      71  66  85 E7        29.82F
DEVILS LAKE    FAIR      73  64  73 SE9       29.81R
$$

NDZ022-023-025-028>030-036>039-047>053-050100-
SOUTHEAST NORTH DAKOTA

CITY           SKY/WX    TMP DP  RH WIND       PRES   REMARKS
FARGO          CLOUDY    77  72  84 E5        29.82S
6HR MIN TEMP:  76; 6HR MAX TEMP:  82; 6HR PCP:  0.03;

JAMESTOWN      FAIR      78  68  71 SE12      29.82R
$$



USA.gov is the U.S. government's official web portal to all federal, state and local government web resources and services.